Torna al catalogo

GLOBALSTAR M050

AttivoComunicazioniLEO
NORAD 25908·PAYLOAD·🇺🇸 United States

Lanciato Sep 22, 1999 da Baikonur Cosmodrome

Loading…

Prossimi Passaggi (prossime 24 ore)

TLE

AggiornatoSource: Space-Track

Epoca: Sep 14, 2026, 14:52 UTC

1 25908U 99049B   26257.62009216 -.00000137  00000-0 -54856-3 0  9997
2 25908  52.0001 309.4261 0008994 215.4423 311.4083 12.07466367203085

Traccia GLOBALSTAR M050 in tempo reale con AllMySat

Download on the App Store